WD6FGE Weather Reports


time (UTC)temp
C
wind
direction
speed
KPH
gust
KPH
rain 1hr
cm
rain 24hr
cm
rain mn
cm
humidity
%
barometer
mb
20181213064226 -2 316 0.0 0.0 0.00 0.00 0.00 87 1029.6
20181213063212 -2 316 0.0 0.0 0.00 0.00 0.00 86 1029.8
20181213062153 -2 316 0.0 0.0 0.00 0.00 0.00 86 1029.7
20181213061137 -2 316 0.0 0.0 0.00 0.00 0.00 86 1029.6
20181213060110 -2 316 0.0 0.0 0.00 0.00 0.00 86 1029.5
20181213055046 -1 316 0.0 0.0 0.00 0.00 0.00 85 1029.4
20181213054100 -1 316 0.0 0.0 0.00 0.00 0.00 84 1029.4
20181213053044 -1 316 0.0 0.0 0.00 0.00 0.00 85 1029.5
20181213052103 -1 316 0.0 1.6 0.00 0.00 0.00 84 1029.4
20181213051100 -1 316 0.0 0.0 0.00 0.00 0.00 83 1029.5
20181213050026 -1 316 0.0 0.0 0.00 0.00 0.00 83 1029.3
20181213045023 -1 323 0.0 0.0 0.00 0.00 0.00 83 1029.2
20181213044000 -1 323 0.0 1.6 0.00 0.00 0.00 83 1029.1
20181213042931 -1 323 0.0 1.6 0.00 0.00 0.00 82 1028.9
20181213041936 0 323 0.0 1.6 0.00 0.00 0.00 81 1028.9
20181213040939 0 323 0.0 1.6 0.00 0.00 0.00 80 1028.7
20181213035917 0 323 0.0 0.0 0.00 0.00 0.00 79 1028.9
20181213034942 0 323 0.0 0.0 0.00 0.00 0.00 78 1028.9
20181213033911 0 323 0.0 0.0 0.00 0.00 0.00 77 1028.8
20181213032915 0 323 0.0 0.0 0.00 0.00 0.00 75 1028.9
20181213031907 1 323 0.0 0.0 0.00 0.00 0.00 74 1028.9
20181213030840 1 323 0.0 1.6 0.00 0.00 0.00 74 1028.9
20181213025836 1 323 0.0 1.6 0.00 0.00 0.00 72 1028.7
20181213024849 1 323 0.0 0.0 0.00 0.00 0.00 73 1028.8
20181213023814 2 323 0.0 0.0 0.00 0.00 0.00 73 1028.6
20181213022755 1 323 0.0 0.0 0.00 0.00 0.00 71 1028.5
20181213021728 2 323 0.0 0.0 0.00 0.00 0.00 73 1028.4
20181213020751 2 323 0.0 1.6 0.00 0.00 0.00 71 1028.2
20181213015748 2 323 0.0 0.0 0.00 0.00 0.00 70 1028.2
20181213014716 2 323 0.0 0.0 0.00 0.00 0.00 68 1028.0
20181213013707 2 323 0.0 3.2 0.00 0.00 0.00 68 1027.7
20181213012650 3 323 0.0 1.6 0.00 0.00 0.00 66 1027.7
20181213011658 3 323 0.0 3.2 0.00 0.00 0.00 65 1027.4
20181213010643 4 323 0.0 0.0 0.00 0.00 0.00 63 1027.3
20181213005625 5 323 0.0 3.2 0.00 0.00 0.00 62 1027.3
20181213004616 5 323 0.0 3.2 0.00 0.00 0.00 57 1027.2
20181213003600 6 323 0.0 1.6 0.00 0.00 0.00 54 1027.1
20181213002549 7 323 0.0 0.0 0.00 0.00 0.00 49 1027.0
20181213001521 8 323 0.0 0.0 0.00 0.00 0.00 45 1027.2
20181213000527 8 323 0.0 0.0 0.00 0.00 0.00 44 1027.4
20181212235509 9 323 0.0 3.2 0.00 0.00 0.00 44 1027.3
20181212234526 9 319 0.0 1.6 0.00 0.00 0.00 43 1027.3
20181212233534 10 319 0.0 3.2 0.00 0.00 0.00 42 1027.3
20181212232502 10 32 1.6 8.0 0.00 0.00 0.00 41 1027.2
20181212231435 10 297 1.6 8.0 0.00 0.00 0.00 40 1027.3
20181212230427 10 345 3.2 9.7 0.00 0.00 0.00 42 1027.3
20181212225419 10 329 3.2 9.7 0.00 0.00 0.00 42 1027.6
20181212224358 10 328 3.2 9.7 0.00 0.00 0.00 41 1027.5
20181212223422 10 299 1.6 8.0 0.00 0.00 0.00 39 1027.6
20181212222353 10 311 4.8 14.5 0.00 0.00 0.00 36 1027.7
20181212221325 11 298 3.2 14.5 0.00 0.00 0.00 35 1027.8
20181212220313 11 355 3.2 14.5 0.00 0.00 0.00 30 1027.9
20181212215335 11 336 4.8 14.5 0.00 0.00 0.00 37 1028.1
20181212214320 10 49 4.8 17.7 0.00 0.00 0.00 39 1028.0
20181212213314 10 17 6.4 17.7 0.00 0.00 0.00 38 1028.3
20181212212249 11 330 6.4 17.7 0.00 0.00 0.00 40 1028.4
20181212211303 11 290 6.4 20.9 0.00 0.00 0.00 39 1028.5
20181212210327 10 355 4.8 20.9 0.00 0.00 0.00 44 1028.5
20181212205338 11 327 4.8 17.7 0.00 0.00 0.00 51 1028.6
20181212204336 10 12 6.4 17.7 0.00 0.00 0.00 49 1028.9
20181212203302 10 9 4.8 14.5 0.00 0.00 0.00 49 1029.0
20181212202231 10 44 3.2 14.5 0.00 0.00 0.00 52 1029.0
20181212201239 10 324 3.2 12.9 0.00 0.00 0.00 54 1029.2
20181212200225 10 318 4.8 12.9 0.00 0.00 0.00 52 1029.2
20181212195155 9 5 4.8 12.9 0.00 0.00 0.00 55 1029.3
20181212194206 9 348 4.8 12.9 0.00 0.00 0.00 55 1029.4
20181212193156 8 291 3.2 12.9 0.00 0.00 0.00 55 1029.3
20181212192159 8 274 4.8 12.9 0.00 0.00 0.00 59 1029.3
20181212191219 8 286 3.2 12.9 0.00 0.00 0.00 62 1029.3
20181212190146 7 0 3.2 9.7 0.00 0.00 0.00 66 1029.7
20181212185114 7 348 3.2 11.3 0.00 0.00 0.00 66 1029.7
20181212184042 7 332 3.2 11.3 0.00 0.00 0.00 72 1029.7
20181212183105 7 313 3.2 11.3 0.00 0.00 0.00 75 1029.6
20181212182038 6 296 3.2 11.3 0.00 0.00 0.00 78 1030.1
20181212181015 6 327 3.2 8.0 0.00 0.00 0.00 81 1030.3
20181212180035 5 5 0.0 6.4 0.00 0.00 0.00 87 1030.3
20181212175024 3 0 0.0 3.2 0.00 0.00 0.00 90 1030.1
20181212173949 2 131 1.6 4.8 0.00 0.00 0.00 91 1029.9
20181212172944 2 124 3.2 4.8 0.00 0.00 0.00 91 1029.6
20181212171952 2 133 0.0 4.8 0.00 0.00 0.00 92 1029.6
20181212171002 1 142 0.0 0.0 0.00 0.00 0.00 92 1029.6
20181212170006 0 142 1.6 0.0 0.00 0.00 0.00 92 1029.8
20181212164946 0 138 0.0 3.2 0.00 0.00 0.00 92 1029.7
20181212163919 -1 138 0.0 0.0 0.00 0.00 0.00 92 1029.7
20181212162944 -1 113 0.0 0.0 0.00 0.00 0.00 92 1029.5
20181212161909 -1 113 0.0 1.6 0.00 0.00 0.00 92 1029.5
20181212160848 -1 113 0.0 0.0 0.00 0.00 0.00 92 1029.4
20181212155837 -2 113 0.0 0.0 0.00 0.00 0.00 92 1029.0
20181212154818 -2 113 0.0 0.0 0.00 0.00 0.00 92 1028.9
20181212153746 -2 113 0.0 0.0 0.00 0.00 0.00 92 1029.0
20181212152737 -2 113 0.0 1.6 0.00 0.00 0.00 91 1028.8
20181212151748 -1 306 0.0 1.6 0.00 0.00 0.00 92 1028.6
20181212150754 -1 306 0.0 0.0 0.00 0.00 0.00 92 1028.3
20181212145808 -1 306 0.0 1.6 0.00 0.00 0.00 91 1028.3
20181212144831 -1 306 0.0 1.6 0.00 0.00 0.00 92 1028.2
20181212143846 -1 306 0.0 1.6 0.00 0.00 0.00 91 1028.2
20181212142821 -1 306 0.0 0.0 0.00 0.00 0.00 91 1028.1
20181212141819 -1 306 0.0 0.0 0.00 0.00 0.00 91 1027.9
20181212140835 -1 306 0.0 0.0 0.00 0.00 0.00 91 1027.9
20181212135834 0 306 0.0 0.0 0.00 0.00 0.00 91 1027.7
20181212134856 0 306 0.0 0.0 0.00 0.00 0.00 91 1027.8
20181212133825 0 306 0.0 0.0 0.00 0.00 0.00 91 1027.5
20181212132837 0 306 0.0 0.0 0.00 0.00 0.00 91 1027.3
20181212131854 0 306 0.0 0.0 0.00 0.00 0.00 91 1027.1
20181212130909 0 306 0.0 0.0 0.00 0.00 0.00 90 1027.1
20181212125924 1 306 0.0 0.0 0.00 0.00 0.00 90 1027.0
20181212124924 1 306 0.0 0.0 0.00 0.00 0.00 90 1026.7
20181212123905 2 306 0.0 3.2 0.00 0.00 0.00 89 1026.8
20181212122834 2 306 0.0 3.2 0.00 0.00 0.00 88 1026.7
20181212121845 3 47 0.0 0.0 0.00 0.00 0.00 88 1026.5
20181212120857 3 317 0.0 3.2 0.00 0.00 0.00 88 1026.3
20181212115907 4 227 4.8 11.3 0.00 0.00 0.00 88 1026.0
20181212114919 4 217 1.6 8.0 0.00 0.00 0.00 87 1026.0
20181212113930 5 112 1.6 8.0 0.00 0.00 0.00 86 1026.0
20181212112915 5 173 3.2 11.3 0.00 0.00 0.00 87 1025.8
20181212111918 5 161 4.8 17.7 0.00 0.00 0.00 88 1025.7
20181212110938 5 240 6.4 17.7 0.00 0.00 0.00 88 1025.3
20181212105925 5 193 1.6 9.7 0.00 0.00 0.00 89 1025.7
20181212104922 5 249 0.0 6.4 0.00 0.00 0.00 89 1025.5
20181212103935 5 223 0.0 4.8 0.00 0.00 0.00 88 1025.2
20181212102926 5 250 1.6 11.3 0.00 0.00 0.00 89 1024.8
20181212101853 5 192 3.2 11.3 0.00 0.00 0.00 89 1024.5
20181212100904 5 247 0.0 4.8 0.00 0.00 0.00 89 1024.4
20181212095927 5 306 0.0 3.2 0.00 0.00 0.00 89 1024.0
20181212094917 5 313 0.0 3.2 0.00 0.00 0.00 88 1024.0
20181212093931 5 316 1.6 9.7 0.00 0.00 0.00 88 1024.0
20181212092922 5 305 1.6 8.0 0.00 0.00 0.00 88 1023.6
20181212091851 5 300 1.6 6.4 0.00 0.00 0.00 87 1023.4
20181212090914 5 288 3.2 9.7 0.00 0.00 0.00 87 1023.1
20181212085933 5 285 1.6 9.7 0.00 0.00 0.00 86 1022.9
20181212084934 5 5 1.6 8.0 0.00 0.00 0.00 86 1022.9
20181212083939 5 302 1.6 14.5 0.00 0.00 0.00 86 1022.8
20181212082918 5 34 3.2 14.5 0.00 0.00 0.00 86 1022.3
20181212081846 5 313 1.6 9.7 0.00 0.00 0.00 85 1021.9
20181212080822 5 309 1.6 9.7 0.00 0.00 0.00 85 1021.4
20181212075804 5 292 3.2 9.7 0.00 0.00 0.00 85 1021.5
20181212074747 6 291 3.2 9.7 0.00 0.00 0.00 84 1021.4
20181212073808 6 264 1.6 8.0 0.00 0.00 0.00 84 1021.5
20181212072831 6 295 1.6 6.4 0.00 0.00 0.00 83 1021.5
20181212071834 6 269 3.2 19.3 0.00 0.00 0.00 83 1021.1
20181212070832 7 219 6.4 19.3 0.00 0.00 0.00 85 1021.6
20181212065825 6 263 3.2 8.0 0.00 0.00 0.00 83 1021.1